Погода в Александрии

Украина / Ровненская область     50°43′55″N   26°20′43″E
темп.,
°C
ветер,
м/с
пор.,
м/с
влажн.,
%
обл.,
%
осадки,
мм/ч
давл.,
гПа
погр.,
м
10 апреля, сб
сб1000:00+3ююз4106983 0.0 1024186
03:00+2ююз4126670 0.0 1023255
06:00+2ю5116788 0.0 1023203
09:00+6ю6115883 0.0 1023375
12:00+10ююз794456 0.0 10221058
15:00+13ююз78437 0.0 10211499
18:00+13ююз574821 0.0 10211466
21:00+8ю49645 0.0 1022140
11 апреля, вс
вс1100:00+6ююз411675 0.0 1023206
03:00+5ю411661 0.0 1024187
06:00+4ю48665 0.0 1025117
09:00+8ю47575 0.0 1025234
12:00+13ююв68415 0.0 1025910
15:00+15ююв67353 0.0 10251405
18:00+14ююв57412 0.0 10241135
21:00+9юв41157100 0.0 1025203
12 апреля, пн
пн1200:00+7ююв411635 0.0 1025227
03:00+5юв496792 0.0 1025159
06:00+4юв4107170 0.0 1024183
09:00+7юв51061100 0.0 1023311
12:00+12ююв5744100 0.0 1022785
15:00+15ююв56385 0.0 10201181
18:00+15ююв45435 0.0 10191058
21:00+10ююв33545 0.0 102036
13 апреля, вт
вт1300:00+9ююв366062 0.0 101974
03:00+9ююв366092 0.0 1019110
06:00+8ю226424 0.0 101816
09:00+11ююв34566 0.0 1018194
12:00+16ююв454487 0.0 1017886
15:00+18ююв443979 0.0 10161496
18:00+18ююв234467 0.0 10151266
21:00+14вюв4859100 0.0 1015138
14 апреля, ср
ср1400:00+12ююв3561100 0.0 1014114
03:00+11ююв3468100 0.0 101475
06:00+10ююв347594 0.0 101380
09:00+11вюв2579100 0.0 1013200
12:00+13вюв4668100 0.0 1012710
15:00+13вюв4769100 0.1 1012617
18:00+14юв5757100 0.0 1011672
21:00+11ююв2472100 0.1 1012130